Weather History for Pellston, MI

Change the Weather History Date:

Wednesday, January 23, 2013

  Actual Average Record
Temperature  
Mean Temperature 8 °F -  
Max Temperature 12 °F 28 °F 47 °F (1969)
Min Temperature 5 °F 13 °F -31 °F (1963)
Degree Days  
Heating Degree Days 56    
Moisture  
Dew Point 5 °F    
Average Humidity 82    
Maximum Humidity 92    
Minimum Humidity 72    
Precipitation  
Precipitation 0.01 in - - ()
Sea Level Pressure  
Sea Level Pressure 30.08 in    
Wind  
Wind Speed 5 mph (NW)    
Max Wind Speed 12 mph    
Max Gust Speed -    
Visibility 3 miles    
Events Fog , Snow    
Averages and records for this station are not official NWS values.
T = Trace of Precipitation, MM = Missing Value Source: NWS Daily Summary

Daily Weather History Graph

Daily Weather History Graph

Search for Another Location

Airport:

Trip Planner

Search our weather history database for the weather conditions in past years. The results will help you decide how hot, cold, wet, or windy it might be!

Date:

Astronomy

Jan. 23, 2013 Rise Set
Actual Time 8:09 AM EST 5:33 PM EST
Civil Twilight 7:37 AM EST 6:05 PM EST
Nautical Twilight 7:00 AM EST 6:41 PM EST
Astronomical Twilight 6:25 AM EST 7:16 PM EST
Moon 2:40 PM EST (1/23) 5:22 AM EST (1/23)
Length of Visible Light 10h 28m
Length of Day
9h 23m
Waxing Gibbous, 89% of the Moon is Illuminated
Jan 23
Waxing Gibbous
Jan 26
Full
Feb 3
Last Quarter
Feb 10
New
Feb 17
First Quarter

Hourly Weather History & Observations

Time (EST) Temp. Windchill Dew Point Humidity Pressure Visibility Wind Dir Wind Speed Gust Speed Precip Events Conditions
12:54 AM 7.0 °F -1.7 °F -0.0 °F 73% 30.20 in 10.0 mi West 4.6 mph - N/A   Overcast
1:54 AM 8.1 °F -0.5 °F 1.0 °F 73% 30.20 in 9.0 mi West 4.6 mph - 0.00 in   Overcast
2:54 AM 8.1 °F - 1.0 °F 73% 30.20 in 10.0 mi Calm Calm - 0.00 in   Overcast
3:54 AM 6.1 °F -0.9 °F -0.9 °F 73% 30.18 in 10.0 mi WSW 3.5 mph - N/A   Scattered Clouds
4:54 AM 6.1 °F - -0.0 °F 76% 30.17 in 7.0 mi Calm Calm - 0.00 in   Overcast
5:00 AM 6.8 °F - -0.4 °F 72% 30.11 in 2.5 mi Calm Calm - 0.00 in Snow Light Snow
5:18 AM 5.0 °F - 1.4 °F 85% 30.10 in 3.0 mi Calm Calm - 0.00 in Snow Light Snow
5:23 AM 5.0 °F - 1.4 °F 85% 30.10 in 1.8 mi Calm Calm - 0.00 in Snow Light Snow
5:42 AM 6.8 °F - 1.4 °F 79% 30.10 in 3.0 mi Calm Calm - 0.00 in Snow Light Snow
5:54 AM 5.0 °F - 1.0 °F 84% 30.16 in 4.0 mi Calm Calm - 0.00 in Snow Light Snow
6:13 AM 5.0 °F -2.1 °F 1.4 °F 85% 30.09 in 2.5 mi SE 3.5 mph - 0.00 in Snow Light Snow
6:24 AM 6.8 °F - 1.4 °F 79% 30.09 in 1.8 mi Calm Calm - 0.00 in Snow Light Snow
6:31 AM 6.8 °F -2.0 °F 1.4 °F 79% 30.09 in 2.5 mi SE 4.6 mph - 0.00 in Snow Light Snow
6:47 AM 6.8 °F - 1.4 °F 79% 30.09 in 3.0 mi Calm Calm - 0.00 in Snow Light Snow
6:54 AM 7.0 °F - 3.0 °F 84% 30.15 in 6.0 mi Calm Calm - 0.00 in Snow Light Snow
7:21 AM 8.6 °F - 3.2 °F 79% 30.09 in 2.5 mi Calm Calm - 0.00 in Snow Light Snow
7:29 AM 8.6 °F - 5.0 °F 85% 30.08 in 0.8 mi Calm Calm - 0.00 in Snow Light Snow
7:35 AM 8.6 °F 2.0 °F 5.0 °F 85% 30.08 in 1.0 mi West 3.5 mph - 0.00 in Snow Light Snow
7:54 AM 9.0 °F -2.2 °F 5.0 °F 84% 30.13 in 1.2 mi West 6.9 mph - 0.00 in Snow Light Snow
8:02 AM 8.6 °F 0.1 °F 3.2 °F 79% 30.07 in 2.0 mi West 4.6 mph - 0.00 in Snow Light Snow
8:05 AM 8.6 °F -2.6 °F 5.0 °F 85% 30.07 in 3.0 mi West 6.9 mph - 0.00 in Snow Light Snow
8:14 AM 8.6 °F 0.1 °F 3.2 °F 79% 30.07 in 2.5 mi West 4.6 mph - 0.00 in Snow Light Snow
8:23 AM 8.6 °F -1.3 °F 3.2 °F 79% 30.07 in 1.8 mi West 5.8 mph - 0.00 in Snow Light Snow
8:29 AM 8.6 °F -2.6 °F 3.2 °F 79% 30.07 in 3.0 mi West 6.9 mph - 0.00 in Snow Light Snow
8:54 AM 9.0 °F -0.9 °F 3.9 °F 80% 30.12 in 10.0 mi West 5.8 mph - 0.00 in   Overcast
10:21 AM 10.4 °F -3.3 °F 3.2 °F 73% 30.07 in 3.0 mi West 10.4 mph - 0.00 in Snow Light Snow
10:25 AM 10.4 °F -2.4 °F 5.0 °F 79% 30.07 in 1.8 mi WNW 9.2 mph - 0.00 in Snow Light Snow
10:41 AM 10.4 °F -1.5 °F 6.8 °F 85% 30.07 in 0.8 mi WNW 8.1 mph - 0.00 in Snow Light Snow
10:54 AM 10.9 °F 2.9 °F 7.0 °F 84% 30.12 in 0.8 mi West 4.6 mph - 0.00 in Snow Light Snow
11:05 AM 10.4 °F 4.0 °F 6.8 °F 85% 30.06 in 1.0 mi West 3.5 mph - 0.00 in Snow Light Snow
11:21 AM 10.4 °F -0.4 °F 6.8 °F 85% 30.06 in 2.5 mi West 6.9 mph - 0.00 in Snow Light Snow
11:30 AM 10.4 °F -2.4 °F 6.8 °F 85% 30.06 in 1.2 mi West 9.2 mph - 0.00 in Snow Light Snow
11:45 AM 10.4 °F -4.1 °F 8.6 °F 92% 30.05 in 0.8 mi WNW 11.5 mph - 0.01 in Snow Light Snow
11:54 AM 10.9 °F -1.8 °F 8.1 °F 88% 30.11 in 0.5 mi WNW 9.2 mph - 0.01 in Fog , Snow Snow
12:06 PM 12.2 °F 1.7 °F 8.6 °F 85% 30.05 in 1.2 mi WNW 6.9 mph - 0.00 in Snow Light Snow
12:25 PM 12.2 °F -1.8 °F 8.6 °F 85% 30.04 in 0.8 mi WNW 11.5 mph - 0.00 in Snow Light Snow
12:47 PM 12.2 °F -0.2 °F 6.8 °F 79% 30.03 in 2.0 mi WNW 9.2 mph - 0.00 in Snow Light Snow
12:54 PM 12.0 °F -1.3 °F 7.0 °F 80% 30.08 in 3.0 mi West 10.4 mph - 0.00 in Snow Light Snow
1:03 PM 12.2 °F -1.8 °F 6.8 °F 79% 30.03 in 2.0 mi West 11.5 mph - 0.00 in Snow Light Snow
1:19 PM 12.2 °F 1.7 °F 8.6 °F 85% 30.02 in 1.2 mi Variable 6.9 mph - 0.00 in Snow Light Snow
1:25 PM 12.2 °F 6.1 °F 8.6 °F 85% 30.02 in 3.0 mi Variable 3.5 mph - 0.00 in Snow Light Snow
1:40 PM 12.2 °F -1.8 °F 6.8 °F 79% 30.01 in 2.0 mi WNW 11.5 mph - 0.00 in Snow Light Snow
1:54 PM 12.0 °F -1.3 °F 8.1 °F 84% 30.06 in 1.0 mi West 10.4 mph - 0.00 in Snow Light Snow
2:01 PM 12.2 °F -1.0 °F 6.8 °F 79% 30.00 in 0.8 mi WNW 10.4 mph - 0.00 in Snow Light Snow
2:07 PM 12.2 °F 1.7 °F 6.8 °F 79% 30.00 in 2.0 mi WNW 6.9 mph - 0.00 in Snow Light Snow
2:23 PM 12.2 °F 1.7 °F 8.6 °F 85% 29.99 in 1.2 mi WNW 6.9 mph - 0.00 in Snow Light Snow
2:34 PM 12.2 °F 4.3 °F 10.4 °F 92% 29.99 in 2.5 mi NW 4.6 mph - 0.00 in Snow Light Snow
2:44 PM 12.2 °F 2.9 °F 8.6 °F 85% 29.99 in 1.5 mi WNW 5.8 mph - 0.00 in Snow Light Snow
2:51 PM 12.2 °F 1.7 °F 8.6 °F 85% 29.99 in 3.0 mi WNW 6.9 mph - 0.00 in Snow Light Snow
2:54 PM 12.9 °F 2.6 °F 8.1 °F 81% 30.04 in 5.0 mi WNW 6.9 mph - 0.00 in   Haze
3:06 PM 12.2 °F 0.7 °F 8.6 °F 85% 29.99 in 1.8 mi NW 8.1 mph - 0.00 in Snow Light Snow
3:22 PM 12.2 °F 4.3 °F 8.6 °F 85% 30.00 in 0.8 mi NW 4.6 mph - 0.00 in Snow Light Snow
3:29 PM 12.2 °F 6.1 °F 8.6 °F 85% 30.00 in 0.5 mi WNW 3.5 mph - 0.00 in Fog , Snow Light Snow
3:54 PM 12.0 °F 0.5 °F 7.0 °F 80% 30.05 in 1.2 mi West 8.1 mph - 0.00 in Snow Light Snow
4:00 PM 12.2 °F 0.7 °F 6.8 °F 79% 30.00 in 3.0 mi West 8.1 mph - 0.00 in Snow Light Snow
4:04 PM 12.2 °F -1.0 °F 6.8 °F 79% 30.00 in 1.8 mi WNW 10.4 mph - 0.00 in Snow Light Snow
4:26 PM 12.2 °F 2.9 °F 6.8 °F 79% 30.00 in 3.0 mi West 5.8 mph - 0.00 in Snow Light Snow
4:54 PM 10.9 °F 0.2 °F 7.0 °F 84% 30.06 in 4.0 mi NW 6.9 mph - 0.00 in   Overcast
5:03 PM 10.4 °F -0.4 °F 6.8 °F 85% 30.01 in 2.5 mi WNW 6.9 mph - 0.00 in Snow Light Snow
5:11 PM 10.4 °F -0.4 °F 6.8 °F 85% 30.01 in 2.5 mi NW 6.9 mph - 0.00 in Snow Light Snow
5:20 PM 10.4 °F -0.4 °F 6.8 °F 85% 30.02 in 1.2 mi NW 6.9 mph - 0.00 in Snow Light Snow
5:31 PM 10.4 °F 4.0 °F 6.8 °F 85% 30.02 in 2.0 mi NW 3.5 mph - 0.00 in Snow Light Snow
5:54 PM 10.9 °F 4.7 °F 7.0 °F 84% 30.08 in 4.0 mi North 3.5 mph - 0.00 in Snow Light Snow
6:08 PM 10.4 °F 0.8 °F 6.8 °F 85% 30.03 in 2.5 mi North 5.8 mph - 0.00 in Snow Light Snow
6:17 PM 10.4 °F 2.2 °F 6.8 °F 85% 30.03 in 1.5 mi North 4.6 mph - 0.00 in Snow Light Snow
6:36 PM 10.4 °F 4.0 °F 6.8 °F 85% 30.04 in 3.0 mi North 3.5 mph - 0.00 in Snow Light Snow
6:46 PM 10.4 °F - 6.8 °F 85% 30.04 in 5.0 mi Calm Calm - 0.00 in Snow Light Snow
6:54 PM 10.9 °F - 7.0 °F 84% 30.10 in 5.0 mi Calm Calm - 0.00 in Snow Light Snow
7:04 PM 10.4 °F 4.0 °F 6.8 °F 85% 30.05 in 2.0 mi North 3.5 mph - 0.00 in Snow Light Snow
7:18 PM 10.4 °F - 6.8 °F 85% 30.05 in 4.0 mi Calm Calm - 0.00 in Snow Light Snow
7:25 PM 10.4 °F 4.0 °F 6.8 °F 85% 30.06 in 5.0 mi North 3.5 mph - 0.00 in Snow Light Snow
7:54 PM 10.9 °F 4.7 °F 6.1 °F 81% 30.12 in 10.0 mi North 3.5 mph - 0.00 in   Overcast
8:54 PM 9.0 °F 2.4 °F 5.0 °F 84% 30.15 in 10.0 mi North 3.5 mph - N/A   Overcast
9:54 PM 9.0 °F -2.2 °F 3.0 °F 77% 30.19 in 2.0 mi North 6.9 mph - 0.00 in Snow Light Snow
9:56 PM 8.6 °F -2.6 °F 3.2 °F 79% 30.14 in 1.8 mi North 6.9 mph - 0.00 in Snow Light Snow
10:05 PM 8.6 °F -3.7 °F 3.2 °F 79% 30.14 in 2.0 mi North 8.1 mph - 0.00 in Snow Light Snow
10:24 PM 6.8 °F -4.8 °F 3.2 °F 85% 30.15 in 3.0 mi NNE 6.9 mph - 0.00 in Snow Light Snow
10:40 PM 6.8 °F -5.9 °F 1.4 °F 79% 30.16 in 10.0 mi NNE 8.1 mph - 0.00 in   Scattered Clouds
10:54 PM 6.1 °F -6.8 °F 1.9 °F 83% 30.23 in 10.0 mi NNE 8.1 mph - 0.00 in   Mostly Cloudy
11:37 PM 5.0 °F -4.1 °F 1.4 °F 85% 30.20 in 5.0 mi North 4.6 mph - N/A   Overcast
11:52 PM 5.0 °F -4.1 °F 1.4 °F 85% 30.21 in 4.0 mi North 4.6 mph - N/A   Overcast
11:54 PM 5.0 °F -4.1 °F 1.9 °F 87% 30.27 in 4.0 mi North 4.6 mph - 0.00 in Snow Light Snow